CAPE
22 19 16 3 0 0 0 0 0 0 0 0 0 0 0 0 0 0 0 0 0 0 0 0 0 0 0 0 0 0 0 0 0 0 0 0 0 0 0 0 0 0 0 0
89 50 0 10 0 1 0 0 0 0 0 0 0 0 0 0 0 0 0 0 0 0 0 0 0 0 0 0 0 0 0 0 0 0 0 0 0 0 0 0 0 0 0 0
19 0 0 3 4 4 8 0 0 0 0 0 0 0 0 0 0 0 0 0 0 0 0 0 0 0 0 0 0 0 0 0 0 0 0 0 0 0 0 0 0 0 0 0
33 0 11 30 5 18 3 0 0 0 0 4 0 0 0 0 0 0 0 0 0 0 0 0 0 0 0 0 0 0 0 0 0 0 0 0 0 0 0 0 0 0 0 0
0 3 15 33 2 4 3 0 0 1 0 0 0 0 0 0 0 0 0 0 0 0 0 0 0 0 0 0 0 0 0 0 0 0 0 0 0 0 0 0 0 0 0 0
4 0 3 6 8 2 0 1 6 5 21 1 0 2 0 0 0 0 0 0 0 0 0 0 0 0 0 0 0 0 0 0 0 0 0 0 0 0 0 0 0 0 0 0
0 13 0 4 14 13 10 5 1 5 35 0 0 0 0 0 0 0 0 0 0 0 0 0 0 0 0 0 0 0 0 0 0 0 0 0 0 0 0 0 0 0 0 0
15 3 31 5 6 0 1 0 0 0 0 0 0 0 0 0 0 0 0 0 0 0 0 0 0 0 0 0 0 0 0 0 0 0 0 0 0 0 0 0 0 0 0 0
8 2 0 0 0 0 2 1 0 0 0 0 0 0 0 0 0 0 0 0 0 0 0 0 0 0 0 0 0 0 0 0 0 0 0 0 0 0 0 0 0 0 0 0
25 7 0 0 1 0 2 0 2 0 0 0 0 0 0 0 0 0 0 0 0 0 0 0 0 0 0 0 0 0 0 0 0 0 0 0 0 0 0 0 0 0 0 0
18 0 0 0 4 3 0 0 0 0 0 0 0 0 0 0 0 0 0 0 0 0 0 0 0 0 0 0 0 0 0 0 0 0 0 0 0 0 0 0 0 0 0 0
0 10 0 0 0 0 0 0 0 1 0 0 0 0 0 0 0 0 0 0 0 0 0 0 0 0 0 0 0 0 0 0 0 0 0 0 0 0 0 0 0 0 0 0
0 1 3 1 0 0 0 0 0 0 0 0 0 0 0 0 0 0 0 0 0 0 0 0 0 0 0 0 0 0 0 0 0 0 0 0 0 0 0 0 0 0 0 0
30 0 0 0 0 0 0 0 0 0 0 0 0 0 0 0 0 0 0 0 0 0 0 0 0 0 0 0 0 0 0 0 0 0 0 0 0 0 0 0 0 0 0 0
17 20 2 0 0 0 0 1 0 2 0 0 0 0 0 0 0 0 0 0 0 0 0 0 0 0 0 0 0 0 0 0 0 0 0 0 0 0 0 0 0 0 0 0
55 12 23 0 0 0 2 2 0 0 0 0 0 0 0 0 0 0 0 0 0 0 0 0 0 0 0 0 0 0 0 0 0 0 0 0 0 0 0 0 0 0 0 1
28 36 0 0 0 0 13 0 0 0 0 0 0 0 0 0 0 0 0 0 0 0 0 0 0 0 0 0 0 0 0 0 0 0 0 0 0 0 0 0 0 0 0 0
10 1 0 1 0 0 0 0 0 0 0 0 0 0 0 0 0 0 0 0 0 0 0 0 0 0 0 0 0 0 0 0 0 0 0 0 0 0 0 0 0 0 0 0
0 0 0 0 2 0 0 0 0 0 0 0 0 0 0 0 0 0 0 0 0 0 0 0 0 0 0 0 0 0 0 0 0 0 0 0 0 0 0 0 0 0 0 0
2 0 3 0 0 1 0 0 0 0 0 0 0 0 0 0 0 0 0 0 0 0 0 0 0 0 0 0 0 0 0 0 0 0 0 0 0 0 0 1 0 0 0 0
0 0 3 3 1 0 0 0 0 0 0 0 0 0 0 0 0 0 0 0 0 0 0 0 0 0 0 0 0 0 0 0 0 0 0 0 0 0 0 0 1 0 0 0
0 1 0 0 0 0 0 0 0 0 0 0 0 0 0 0 0 0 0 0 0 0 0 0 0 0 0 0 0 0 0 0 0 0 0 0 0 0 0 0 0 0 0 0
6 0 0 0 0 0 0 0 0 0 0 0 0 0 0 0 0 0 0 0 0 0 0 0 0 0 0 0 0 0 0 0 0 0 0 0 0 0 0 0 0 0 0 0
0 0 0 0 0 0 0 0 0 0 0 0 0 0 0 0 0 0 0 0 0 0 0 0 0 0 0 0 0 0 0 0 0 0 0 0 0 0 0 0 0 0 0 0
0 0 0 0 0 0 0 0 0 0 0 0 0 0 0 0 0 0 0 0 0 0 0 0 0 0 0 0 0 0 0 0 0 0 0 0 0 0 0 0 0 0 0 0
2 2 0 1 0 1 0 0 0 0 0 0 0 0 0 0 0 0 0 0 0 0 0 0 0 0 0 0 0 0 0 0 0 0 0 0 0 0 0 0 0 0 0 1
CIN
-4 -0 -0 -3 0 0 0 0 0 0 0 0 0 0 0 0 0 0 0 0 0 0 0 0 0 0 0 0 0 0 0 0 0 0 0 0 0 0 0 0 0 0 0 0
0 -1 -0 -5 0 -5 0 0 0 0 0 0 0 0 0 0 0 0 0 0 0 0 0 0 0 0 0 0 0 0 0 0 0 0 0 0 0 0 0 0 0 0 0 0
-21 0 0 -20 -3 -1 -1 -4 0 0 0 0 0 0 0 0 0 0 0 0 0 0 0 0 0 0 0 0 0 0 0 0 0 0 0 0 0 0 0 0 0 0 0 0
-1 0 -6 -1 -1 -9 -0 0 0 -5 0 -1 0 0 0 0 0 0 0 0 0 0 0 0 0 0 0 0 0 0 0 0 0 0 0 0 0 0 0 0 0 0 0 0
0 -3 -5 -0 -3 -5 -4 -1 -11 -24 -21 -3 -0 0 0 0 0 0 0 0 0 0 0 0 0 0 0 0 0 0 0 0 0 0 0 0 0 0 0 0 0 0 0 0
-1 0 -11 -9 -8 -15 0 -7 -17 -14 -2 -4 0 -3 0 0 0 0 0 0 0 0 0 0 0 0 0 0 0 0 0 0 0 0 0 0 0 0 0 0 0 0 0 0
-0 -2 -0 -30 -8 -14 -7 -0 0 -0 -0 0 0 0 0 0 0 0 0 0 0 0 0 0 0 0 0 0 0 0 0 0 0 0 0 0 0 0 0 0 0 0 0 0
-0 -2 -0 -5 -1 -0 -0 -0 -1 0 0 0 0 0 0 0 0 0 0 0 0 0 0 0 0 0 0 0 0 0 0 0 0 0 0 0 0 0 0 0 0 0 0 0
-21 -0 0 -0 0 0 -2 -1 0 -2 0 0 0 0 0 0 0 0 0 0 0 0 0 0 0 0 0 0 0 0 0 0 0 0 0 0 0 0 0 0 0 0 0 0
-1 -1 0 0 -4 0 -7 0 -0 0 0 0 0 0 0 0 0 0 0 0 0 0 0 0 0 0 0 0 0 0 0 0 0 0 0 0 0 0 0 0 0 0 0 0
-0 -4 -1 0 -4 -1 -1 0 0 0 0 0 0 0 0 0 0 0 0 0 0 0 0 0 0 0 0 0 0 0 0 0 0 0 0 0 0 0 0 0 0 0 0 0
-0 0 0 -1 0 -3 0 0 0 -1 0 0 0 0 0 0 0 0 0 0 0 0 0 0 0 0 0 0 0 0 0 0 0 0 0 0 0 0 0 0 0 0 0 0
0 -0 -0 -3 0 0 0 0 0 0 0 0 0 0 0 0 0 0 0 0 0 0 0 0 0 0 0 0 0 0 0 0 0 0 0 0 0 0 0 0 0 0 0 0
-8 0 -1 -4 0 0 -1 -1 0 0 0 0 0 0 0 0 0 0 0 0 0 0 0 0 0 0 0 0 0 0 0 0 0 0 0 0 0 0 0 0 0 0 0 0
-11 -1 -2 0 0 0 -1 -1 -1 -4 0 0 0 0 0 0 0 0 0 0 0 0 0 0 0 0 0 0 0 0 0 0 0 0 0 0 0 0 0 0 0 0 0 0
-8 -5 -0 -0 -0 -20 -53 -29 -0 -5 0 0 0 0 0 0 0 0 0 0 0 0 0 0 0 0 0 0 0 0 0 0 0 0 0 0 0 0 0 0 0 0 0 0
-8 -5 0 0 0 0 -25 -33 0 0 0 0 0 0 0 0 0 0 0 0 0 0 0 0 0 0 0 0 0 0 0 0 0 0 0 0 0 0 0 0 0 0 0 0
-1 0 -0 -1 0 0 0 0 0 0 0 0 0 0 0 0 0 0 0 0 0 0 0 0 0 0 0 0 0 0 0 0 0 0 0 0 0 0 0 0 0 0 0 0
0 -0 0 0 -4 0 0 0 0 0 0 0 0 0 0 0 0 0 0 0 0 0 0 0 0 0 0 0 0 0 0 0 0 0 0 0 0 0 0 0 0 0 0 0
-0 -0 -0 -0 0 -7 0 0 0 0 0 0 0 0 0 0 0 0 0 0 0 0 0 0 0 0 0 0 0 0 0 0 0 0 0 0 0 0 0 0 0 0 0 0
0 0 -0 -0 -4 0 0 0 0 0 0 0 0 0 0 0 0 0 0 0 0 0 0 0 0 0 0 0 0 0 0 0 0 0 0 0 0 0 0 0 0 0 0 0
-4 -73 0 0 0 0 0 0 0 0 0 0 0 0 0 0 0 0 0 0 0 0 0 0 0 0 0 0 0 0 0 0 0 0 0 0 0 0 0 0 0 0 0 0
-3 0 0 0 0 0 0 0 0 0 0 0 0 0 0 0 0 0 0 0 0 0 0 0 0 0 0 0 0 0 0 0 0 0 0 0 0 0 0 0 0 0 0 0
0 0 0 0 0 0 0 0 0 0 0 0 0 0 0 0 0 0 0 0 0 0 0 0 0 0 0 0 0 0 0 0 0 0 0 0 0 0 0 0 0 0 0 0
0 0 0 0 0 0 0 0 0 0 0 0 0 0 0 0 0 0 0 0 0 0 0 0 0 0 0 0 0 0 0 0 0 0 0 0 0 0 0 0 0 0 0 0
0 0 0 0 0 0 0 0 0 0 0 0 0 0 0 0 0 0 0 0 0 0 0 0 0 0 0 0 0 0 0 0 0 0 0 0 0 0 0 0 0 0 0 0
Wind_Speed
8 7 8 17 16 2 6 5 9 3 6 5 11 16 15 12 4 8 10 10 12 14 14 8 9 8 8 9 11 14 13 12 10 6 6 5 8 6 3 5 7 7 6 7
6 16 16 10 10 7 3 4 4 3 2 5 6 14 13 9 8 12 16 12 14 11 9 8 12 13 14 15 15 13 14 14 12 9 8 4 5 3 5 5 5 7 7 8
16 22 14 10 10 14 13 15 4 3 3 3 6 15 13 9 16 15 11 16 14 16 16 13 13 16 16 16 15 15 16 15 14 13 6 3 3 2 3 4 5 8 9 9
18 13 17 17 19 15 21 6 6 5 1 5 5 9 6 6 16 9 19 18 20 14 15 14 14 14 16 17 15 17 15 15 14 15 12 14 11 11 8 7 5 6 10 10
12 14 17 22 23 18 10 11 6 1 2 4 4 6 8 2 8 13 16 17 15 17 18 18 16 18 16 16 17 15 15 15 16 17 16 12 14 9 7 5 7 8 8 11
12 3 11 9 8 17 8 7 4 2 1 10 16 12 9 10 13 10 7 11 15 16 16 16 16 14 14 12 14 14 17 19 17 17 18 17 16 14 8 7 7 7 7 8
20 10 7 9 9 15 17 10 4 6 7 15 4 11 18 7 10 9 10 11 10 10 11 14 14 13 14 15 16 15 17 16 16 18 18 20 19 15 14 13 11 11 8 8
18 15 15 17 16 11 27 15 5 9 7 9 6 13 8 12 19 18 11 10 7 8 8 10 14 16 16 16 17 17 17 18 17 18 19 16 16 12 12 12 10 9 9 9
8 18 17 12 5 16 12 13 12 6 3 2 7 10 7 11 14 10 10 8 12 10 8 10 9 11 13 14 17 19 18 18 16 17 15 15 14 15 14 13 9 9 8 6
4 6 18 10 8 5 12 16 11 3 4 6 7 8 14 4 20 12 12 14 16 9 9 8 7 9 9 11 13 15 16 18 16 17 14 13 14 13 12 7 11 9 9 7
6 4 8 11 18 21 10 13 8 7 5 6 8 13 9 18 18 17 19 16 14 10 11 8 7 6 7 5 7 10 12 12 11 12 12 12 12 12 10 10 9 11 7 8
21 3 3 24 5 19 23 8 18 10 13 5 0 15 1 9 8 5 10 7 7 8 7 7 8 6 6 8 7 10 9 11 11 10 10 11 10 9 10 11 12 7 11 8
10 10 10 4 4 3 18 15 24 13 3 18 14 23 4 2 7 7 9 9 8 7 6 6 5 7 7 7 7 7 6 7 7 8 10 8 10 9 11 10 8 7 6 7
7 12 15 13 12 6 24 30 26 27 15 22 23 36 17 5 6 8 8 9 8 7 7 6 6 7 7 6 6 6 7 6 6 7 7 8 7 7 5 5 5 5 3 3
16 19 24 31 27 15 18 24 28 26 31 22 31 32 25 11 11 7 6 5 5 7 7 8 8 7 7 7 6 6 6 7 6 7 6 6 5 5 5 5 5 4 3 2
15 17 18 28 21 29 24 24 27 26 30 28 31 30 23 12 12 7 8 8 9 9 10 9 8 8 9 8 8 7 7 7 6 7 7 6 6 6 6 6 6 6 4 4
10 15 10 23 29 17 28 32 33 30 34 33 31 40 15 7 11 16 11 10 12 14 12 10 10 9 9 9 9 8 8 6 7 8 7 7 7 7 7 6 7 7 6 5
11 10 13 13 10 24 18 26 26 32 36 36 31 24 25 25 17 10 13 11 13 14 10 9 9 8 8 6 7 8 8 7 7 7 7 7 7 7 6 7 6 6 4 6
20 10 6 10 17 3 7 14 35 27 37 31 28 33 27 4 6 11 12 14 20 16 12 14 12 7 8 8 8 8 8 8 8 8 7 7 6 6 6 6 6 4 5 4
20 19 11 5 14 18 32 11 10 11 24 22 34 39 34 11 11 21 23 16 19 13 11 12 10 6 8 8 8 9 8 7 8 8 8 7 6 6 6 6 6 3 3 4
12 14 20 20 10 9 4 13 22 19 32 20 27 34 31 18 28 38 9 11 10 11 11 8 9 10 11 9 8 9 8 9 6 7 7 6 5 6 7 7 4 5 5 6
13 11 8 14 16 23 13 19 26 35 2 5 20 28 17 23 26 27 12 10 11 14 11 11 11 9 8 8 9 8 8 6 7 8 7 7 6 5 5 7 4 5 6 6
9 11 9 13 13 3 20 7 6 6 4 3 5 7 21 22 25 18 14 13 13 14 11 9 12 10 7 6 5 9 8 9 9 9 8 7 6 5 5 6 6 4 5 4
6 3 5 5 8 6 15 4 7 8 6 4 1 2 6 13 13 15 8 8 8 8 9 8 13 12 9 5 6 6 10 9 9 10 8 7 7 7 5 4 4 4 4 4
6 5 3 4 4 3 6 12 14 15 10 8 6 4 6 5 7 7 7 7 7 7 6 5 10 11 10 8 9 9 10 10 9 8 7 7 6 7 6 4 4 5 2 5
9 10 6 3 9 8 6 14 17 15 13 12 7 7 5 5 6 6 5 4 7 8 5 6 6 8 8 8 8 7 7 9 11 10 7 6 6 7 7 8 7 9 9 10
Wind_Direction
168 216 224 196 206 162 161 182 198 194 218 185 221 243 245 247 219 245 246 231 225 223 232 210 199 194 182 187 186 188 185 188 175 174 185 202 214 207 206 205 196 192 186 191
193 224 227 200 198 212 177 199 223 293 195 190 278 264 245 246 238 224 225 235 230 230 223 199 200 193 197 202 199 193 194 186 191 193 196 187 180 200 215 195 201 196 194 194
216 223 220 221 195 206 223 219 190 229 8 255 335 272 256 243 243 241 235 232 231 220 221 214 201 204 202 204 198 200 200 193 194 195 178 123 108 108 168 199 207 204 198 202
220 224 194 209 218 198 227 151 165 210 242 253 166 285 259 236 243 224 230 225 230 215 219 219 204 205 206 213 202 206 200 200 197 191 192 198 204 209 212 213 198 193 199 204
207 196 195 200 210 192 227 169 179 145 269 320 241 278 272 251 243 239 228 229 228 223 214 216 202 203 204 202 204 200 196 198 197 198 202 200 211 215 210 177 187 200 203 210
253 130 215 195 179 177 153 105 97 96 34 269 244 232 227 224 221 255 220 227 220 222 214 217 211 199 206 199 196 195 194 202 198 197 203 205 209 211 200 195 202 212 210 209
225 215 212 150 181 172 183 159 172 210 195 241 189 206 247 247 252 232 228 241 231 217 206 209 200 194 201 189 195 191 198 204 197 198 201 208 212 209 208 202 207 211 214 217
216 216 213 184 196 180 190 174 163 188 189 259 127 238 248 232 248 242 225 239 246 215 217 215 204 204 204 197 194 191 194 203 199 202 207 209 210 211 216 211 214 216 220 220
190 224 169 206 172 157 188 202 180 111 38 53 209 277 284 263 263 257 247 244 244 230 212 224 215 209 207 198 197 193 194 205 198 199 204 206 208 213 217 216 210 219 218 213
204 257 189 187 181 228 186 183 186 143 174 243 244 259 237 258 244 245 243 231 242 218 208 222 220 213 212 208 205 199 197 198 195 196 200 205 208 213 219 203 214 212 217 194
228 241 188 169 196 187 175 186 199 174 162 196 256 255 200 212 234 227 240 237 230 209 210 208 213 220 215 206 194 195 196 191 189 189 193 197 202 205 202 207 209 212 197 192
210 252 230 212 170 225 206 190 191 201 211 223 124 260 245 245 277 321 285 268 244 227 208 202 199 200 198 201 193 192 186 188 191 187 184 195 195 183 193 204 214 183 209 201
182 216 263 179 241 205 204 205 198 214 62 218 227 260 219 260 294 280 265 270 254 227 209 199 186 202 205 205 199 192 179 182 168 168 183 185 191 188 201 207 201 200 204 207
191 225 226 243 221 166 209 206 199 204 211 224 224 248 241 265 264 297 271 265 259 232 204 200 202 210 206 192 183 181 192 192 173 175 176 185 187 188 175 165 178 193 199 210
213 237 226 236 255 202 208 211 208 208 220 214 235 240 244 240 267 252 262 290 250 233 220 213 208 204 202 193 191 186 185 176 168 171 173 191 175 167 158 158 146 157 142 119
215 228 231 246 231 237 222 214 208 215 226 233 249 253 241 226 234 232 221 220 240 240 227 218 203 192 196 192 188 178 171 165 151 156 170 153 147 147 151 142 137 148 130 110
239 231 207 241 220 222 230 207 210 215 222 214 225 232 212 191 214 230 239 210 218 230 228 209 200 197 198 193 176 178 167 149 154 153 152 152 149 148 149 141 134 131 134 129
247 245 222 245 209 216 230 215 210 212 221 222 240 249 233 231 232 224 228 206 218 228 211 197 205 204 197 182 164 148 150 154 152 155 157 158 156 150 147 142 139 131 128 127
209 206 237 245 217 302 252 198 196 196 228 219 231 247 243 256 150 242 219 208 220 215 205 209 206 186 160 178 160 144 150 152 156 168 168 165 155 144 147 138 141 128 125 116
202 204 201 246 231 218 232 153 150 174 263 205 215 232 233 199 225 240 219 212 221 204 181 194 183 157 151 178 156 145 157 157 176 170 169 158 147 143 145 139 148 150 135 130
198 209 211 222 246 268 196 167 136 170 233 201 208 226 229 210 222 240 197 220 193 197 196 159 165 173 184 151 154 159 159 188 157 138 127 124 134 143 140 137 145 140 134 122
188 187 197 212 218 249 154 154 168 212 223 199 201 225 220 221 233 241 211 212 184 193 174 172 165 174 154 150 158 157 174 123 118 124 123 127 129 124 138 137 131 128 123 119
225 196 180 192 218 324 180 209 8 344 177 160 181 209 214 221 231 231 213 197 196 187 176 162 163 147 139 148 166 160 149 144 139 132 133 129 121 126 146 135 128 118 110 113
227 49 202 136 229 199 213 350 28 358 349 333 292 223 214 222 227 227 197 172 169 163 172 156 147 157 157 151 126 125 144 140 139 144 134 138 140 134 130 117 105 122 125 109
350 357 252 273 27 308 51 29 356 329 323 340 329 314 286 245 232 190 181 167 156 146 124 149 164 155 145 136 127 131 138 142 138 135 133 140 136 136 118 93 133 123 124 141
13 353 325 346 11 316 299 342 353 336 356 337 336 331 332 330 231 160 145 138 138 139 120 113 103 117 121 119 115 108 125 146 145 141 146 153 147 130 135 130 115 113 130 135